Torna al catalogo

FENGYUN 1C DEB

AttivoSSO
NORAD 29943·DEBRIS·🇨🇳 China

Lanciato May 10, 1999 da Taiyuan Satellite Launch Center

Loading…

Prossimi Passaggi (prossime 24 ore)

TLE

AggiornatoSource: Space-Track

Epoca: Sep 13, 2026, 23:04 UTC

1 29943U 99025JR  26256.96140279  .00000059  00000-0  57586-4 0  9990
2 29943  98.7280 261.3549 0035838 167.2608 222.4236 14.09718931 11804

Traccia FENGYUN 1C DEB in tempo reale con AllMySat

Download on the App Store